This is the latest recevied weather packets stored in our database for station/object DG1ROH. If no packets are shown the sender has not sent any weather packets the latest 1 day(s).
| Time | Temp. | Humidity | Pressure | Rain* | Wind** | Luminosity | Snow |
|---|---|---|---|---|---|---|---|
| 1778072825 | 11.11° C | 91% | 1006.7 hPa | 0 mm | - | 56 W/m² | - |
| 1778072345 | 11.67° C | 91% | 1006.6 hPa | 0 mm | - | 84 W/m² | - |
| 1778072105 | 11.67° C | 91% | 1006.5 hPa | 0 mm | - | 155 W/m² | - |
| 1778071985 | 11.67° C | 91% | 1006.5 hPa | 0 mm | - | 193 W/m² | - |
| 1778071625 | 11.67° C | 92% | 1006.5 hPa | 0 mm | - | 225 W/m² | - |
| 1778071265 | 11.11° C | 92% | 1006.6 hPa | 0 mm | - | 130 W/m² | - |
| 1778071145 | 11.11° C | 92% | 1006.6 hPa | 0 mm | - | 146 W/m² | - |
| 1778070078 | 11.11° C | 93% | 1006.4 hPa | 0 mm | - | 146 W/m² | - |
| 1778069945 | 11.11° C | 93% | 1006.4 hPa | 0 mm | - | 149 W/m² | - |
| 1778069585 | 11.11° C | 93% | 1006.3 hPa | 0 mm | - | 105 W/m² | - |
| 1778069225 | 11.11° C | 93% | 1006.3 hPa | 0 mm | - | 70 W/m² | - |
| 1778068745 | 11.11° C | 93% | 1006.4 hPa | 0 mm | - | 62 W/m² | - |
| 1778067665 | 11.67° C | 94% | 1006.2 hPa | 0 mm | - | 44 W/m² | - |
| 1778067545 | 11.11° C | 94% | 1006.1 hPa | 0 mm | - | 49 W/m² | - |
| 1778067185 | 11.11° C | 94% | 1006 hPa | 0 mm | - | 95 W/m² | - |
| 1778066945 | 11.11° C | 94% | 1006 hPa | 0 mm | - | 113 W/m² | - |
| 1778066705 | 11.11° C | 94% | 1006 hPa | 0 mm | - | 63 W/m² | - |
| 1778066596 | 11.11° C | 94% | 1005.9 hPa | 0 mm | - | 53 W/m² | - |
| 1778066102 | 11.11° C | 94% | 1006 hPa | 0 mm | - | 65 W/m² | - |
| 1778065861 | 11.11° C | 94% | 1005.7 hPa | 0 mm | - | 72 W/m² | - |
| 1778065622 | 11.11° C | 94% | 1005.7 hPa | 0 mm | - | 93 W/m² | - |
| 1778065497 | 11.11° C | 94% | 1005.7 hPa | 0 mm | - | 134 W/m² | - |
| 1778065257 | 11.11° C | 94% | 1005.8 hPa | 0 mm | - | 81 W/m² | - |
| 1778065017 | 11.11° C | 94% | 1005.7 hPa | 0 mm | - | 91 W/m² | - |
| 1778064776 | 11.11° C | 94% | 1005.7 hPa | 0 mm | - | 102 W/m² | - |
* Rain latest hour (hover to see other rain measurements)
** Current wind speed in m/s (hover to see current wind gust speed)